Regional Weather Roundup
Issued by NWS Charleston, WV

Home | Current Version | Previous Version | Graphics & Text | Print | Product List | Glossary On
Versions: 1 2 3 4 5 6 7 8 9 10 11 12 13 14 15 16 17 18 19 20 21 22 23 24 25 26 27 28 29 30 31 32 33 34 35 36 37 38 39 40 41 42 43 44 45 46 47 48 49 50
000
ASUS41 KRLX 010610
RWRRLX
West Virginia Regional Weather Roundup
National Weather Service Charleston WV
100 AM EST SUN MAR 01 2015

Note: "fair" indicates few or no clouds below 12,000 feet with no
significant weather and/or obstructions to visibility.

WVZ003-010700-
Northern Panhandle of West Virginia

CITY           SKY/WX    TMP DP  RH WIND       PRES   REMARKS
WHEELING       CLOUDY    23   5  46 N3        30.48F
$$

WVZ009-010700-
Northwest West Virginia

CITY           SKY/WX    TMP DP  RH WIND       PRES   REMARKS
PARKERSBURG    CLOUDY    30  11  45 N3        30.51F
$$

WVZ006-010700-
Western West Virginia

CITY           SKY/WX    TMP DP  RH WIND       PRES   REMARKS
HUNTINGTON     CLOUDY    31  15  52 NE3       30.44F
$$

WVZ015-010700-
West Central West Virginia

CITY           SKY/WX    TMP DP  RH WIND       PRES   REMARKS
CHARLESTON     CLOUDY    30  18  60 CALM      30.45S
$$

WVZ022-031-010700-
North Central West Virginia

CITY           SKY/WX    TMP DP  RH WIND       PRES   REMARKS
CLARKSBURG     CLOUDY    28  13  53 CALM      30.46F
MORGANTOWN     CLOUDY    28  11  48 N3        30.48S
$$

WVZ025-035-042-045-010700-
Southern West Virginia

CITY           SKY/WX    TMP DP  RH WIND       PRES   REMARKS
BECKLEY        CLOUDY    29  15  56 SE12G20   30.44F
LOGAN          CLOUDY    37  21  52 CALM      30.39S
BLUEFIELD      CLOUDY    31  16  54 SE8       30.45F
LEWISBURG      CLOUDY    27  15  59 E3        30.52F
$$

WVZ047-010700-
Northern Mountains of West Virginia

CITY           SKY/WX    TMP DP  RH WIND       PRES   REMARKS
ELKINS         CLOUDY    22  17  81 CALM      30.47F
$$

WVZ052-010700-
Eastern Panhandle of West Virginia

CITY           SKY/WX    TMP DP  RH WIND       PRES   REMARKS
MARTINSBURG    CLEAR     20  10  65 CALM      30.66S
PETERSBURG     PTCLDY    22  13  70 CALM      30.61S
$$


USA.gov is the U.S. government's official web portal to all federal, state and local government web resources and services.